Location: Epalinges
(46.5518°N, 6.6683°E)
Time: 18:50:28
(UTC+00:00)

AQUA - Pass Details

Date: 20 June 2021
Orbit: 701 x 704 km, 98.2° (Epoch: 02 August)

Event Time Altitude Azimuth Distance (km) Brightness Sun altitude
Rises 01:44:40 0° 12° (NNE) 3,106 8.6 -14.1°
Reaches altitude 10° 01:46:56 10° 11° (N) 2,182 7.5 -13.9°
Maximum altitude 01:51:43 77° 286° (WNW) 728 3.8 -13.5°
Enters shadow 01:55:07 19° 203° (SSW) 1,634 5.1 -13.2°
